Meteo Giornale » Osservazioni meteo Francia » Parigi-Orly

ore: 22:30 - Osservazioni Meteo Parigi-Orly
Lat. 48° 44' N Lon. 2° 24' E Alt. 89 metri s.l.m.

sereno Europe/Paris

9 °C

Sereno

Temp. 24 Ore

7 °C

14 °C

Sud-Ovest

16.7 Km/h

Dew point 7 °C

Umidità 87 %

Visibilità  10 Km

Il sole sorge alle ore 07:26

Il sole tramonta alle ore 17:41

Data e Ora Cielo e Fenomeni T °C DP °C Um. % Pres. hPa Vis. km Vento km/h
Oggi h: 22:30 sereno Sereno 9 7 87 1007 10 SO 16.7
Oggi h: 21:30 sereno Sereno 10 7 81 1006 10 S/SO 16.7
Oggi h: 21:00 sereno Sereno 10 7 81 1006 10 SO 13
Oggi h: 20:30 sereno Sereno 11 7 76 1006 10 SO 13
Oggi h: 20:00 sereno Sereno 11 7 76 1006 10 O/SO 16.7
Oggi h: 19:30 sereno Sereno 11 7 76 1006 10 SO 18.5
Oggi h: 19:00 nuvoloso_piovaschi Debole Rovescio di Pioggia 12 7 71 1006 10 SO 11.1
Oggi h: 18:30 molto_nuvoloso Molto Nuvoloso 12 7 71 1005 10 SO 9.3
Oggi h: 18:00 poco_nuvoloso Poco Nuvoloso 12 6 66 1005 10 SO 13
Oggi h: 17:00 molto_nuvoloso Molto Nuvoloso 13 6 62 1004 10 O/SO 25.9
Oggi h: 16:00 molto_nuvoloso Molto Nuvoloso 14 6 58 1004 10 O/SO 24
Oggi h: 15:30 molto_nuvoloso Molto Nuvoloso 14 6 58 1004 10 O/SO 27.8
Oggi h: 15:00 molto_nuvoloso Molto Nuvoloso 14 7 62 1004 10 O 25.9
Oggi h: 14:30 molto_nuvoloso Molto Nuvoloso 13 8 71 1004 10 SO 24
Oggi h: 14:00 molto_nuvoloso Molto Nuvoloso 14 8 67 1004 10 SO 31.5
Oggi h: 13:30 molto_nuvoloso Molto Nuvoloso 13 7 66 1004 10 SO 25.9
Oggi h: 13:00 molto_nuvoloso Molto Nuvoloso 13 7 66 1005 10 SO 27.8
Oggi h: 12:30 molto_nuvoloso Molto Nuvoloso 13 8 71 1005 10 SO 27.8
Oggi h: 12:00 molto_nuvoloso Molto Nuvoloso 12 7 71 1005 10 O/SO 27.8
Oggi h: 11:30 nuvoloso Nuvoloso 12 8 76 1005 10 SO 22.2
Oggi h: 11:00 nuvoloso Nuvoloso 12 8 76 1005 10 SO 20.3
Oggi h: 10:30 poco_nuvoloso Poco Nuvoloso 11 8 81 1005 10 SO 20.3
Oggi h: 10:00 sereno Sereno 10 7 81 1005 10 SO 16.7
Oggi h: 09:30 sereno Sereno 9 7 87 1005 10 S/SO 13
Oggi h: 09:00 poco_nuvoloso Poco Nuvoloso 9 7 87 1005 10 S/SO 13
Oggi h: 08:30 sereno Sereno 8 7 93 1005 10 S/SO 13
Oggi h: 08:00 sereno Sereno 7 6 93 1005 10 SO 16.7
Oggi h: 07:30 sereno Sereno 7 6 93 1004 10 SO 14.8
Oggi h: 07:00 sereno Sereno 7 6 93 1004 10 SO 13
Oggi h: 06:30 nuvoloso Nuvoloso 7 7 100 1004 10 S/SO 13
Oggi h: 06:00 nuvoloso Nuvoloso 7 7 100 1003 10 S/SO 14.8
Oggi h: 05:30 nuvoloso Nuvoloso 8 7 93 1003 10 S/SO 14.8
Oggi h: 05:00 nuvoloso Nuvoloso 8 7 93 1003 10 SO 11.1
Oggi h: 04:00 nuvoloso Nuvoloso 8 7 93 1003 10 S/SO 11.1
Oggi h: 03:30 nuvoloso Nuvoloso 9 7 87 1003 10 S/SO 13
Oggi h: 02:30 molto_nuvoloso Molto Nuvoloso 9 8 93 1003 10 SO 13
Oggi h: 02:00 molto_nuvoloso Molto Nuvoloso 9 8 93 1002 10 SO 18.5
Oggi h: 01:30 molto_nuvoloso Molto Nuvoloso 9 8 93 1003 10 SO 14.8
Oggi h: 01:00 molto_nuvoloso Molto Nuvoloso 9 8 93 1003 10 SO 16.7
Oggi h: 01:30 molto_nuvoloso Molto Nuvoloso 9 8 93 1003 10 SO 14.8
Oggi h: 01:00 molto_nuvoloso Molto Nuvoloso 9 8 93 1003 10 SO 13
Oggi h: 00:30 molto_nuvoloso Molto Nuvoloso 9 8 93 1003 10 SO 11.1
Oggi h: 00:00 molto_nuvoloso Molto Nuvoloso 10 8 87 1003 10 SO 14.8